Location: New Plymouth
(39.0670°S, 174.0830°E)
Time: 05:02:53
(UTC+13:00)

H-2A R/B - Pass Details

Date: 24 January 2019
Orbit: 734 x 836 km, 98.3° (Epoch: 18 February)

Event Time Altitude Azimuth Distance (km) Brightness Sun altitude
Rises 22:35:44 0° 165° (SSE) 3,259 5.7 -18.1°
Reaches altitude 10° 22:38:05 10° 162° (SSE) 2,313 4.8 -18.4°
Maximum altitude 22:43:09 70° 78° (ENE) 802 1.9 -19.1°
Enters shadow 22:45:38 30° 1° (N) 1,327 2.8 -19.4°
